Total_Precipitation_Accumulation
0.00 0.00 0.00 0.00 0.00 0.00 0.00 0.00 0.00 0.00 0.00 0.00 0.00 0.00 0.00 0.00 0.00 0.00 0.00 0.00 0.00 0.00 0.00 0.00 0.00 0.00 0.00 0.00 0.00 0.00 0.01 0.00 0.00 0.01 0.08 0.29 0.39 0.31 0.37 0.47 0.45 0.41 0.64 0.72
0.00 0.00 0.00 0.00 0.00 0.00 0.00 0.00 0.00 0.00 0.00 0.00 0.00 0.00 0.00 0.00 0.00 0.00 0.00 0.00 0.00 0.00 0.00 0.00 0.00 0.00 0.00 0.00 0.00 0.00 0.00 0.00 0.00 0.00 0.05 0.21 0.41 0.42 0.41 0.52 0.49 0.48 0.57 0.44
0.00 0.00 0.00 0.00 0.00 0.00 0.00 0.00 0.00 0.00 0.00 0.00 0.00 0.00 0.00 0.00 0.00 0.00 0.00 0.00 0.00 0.00 0.00 0.00 0.00 0.00 0.00 0.00 0.00 0.00 0.00 0.00 0.01 0.01 0.03 0.20 0.36 0.54 0.73 0.92 0.83 0.56 0.56 0.44
0.00 0.00 0.00 0.00 0.00 0.00 0.00 0.00 0.00 0.00 0.00 0.00 0.00 0.01 0.00 0.00 0.00 0.00 0.00 0.00 0.00 0.00 0.00 0.00 0.00 0.00 0.00 0.00 0.00 0.00 0.00 0.00 0.00 0.00 0.01 0.11 0.42 0.47 0.66 0.71 0.95 0.62 0.49 0.47
0.01 0.00 0.00 0.00 0.00 0.00 0.00 0.00 0.00 0.00 0.00 0.00 0.00 0.00 0.00 0.00 0.00 0.00 0.00 0.00 0.00 0.00 0.00 0.00 0.00 0.00 0.00 0.00 0.00 0.00 0.00 0.00 0.00 0.00 0.00 0.03 0.14 0.26 0.44 0.72 1.02 1.15 0.76 0.50
0.00 0.00 0.00 0.00 0.00 0.00 0.00 0.00 0.00 0.00 0.00 0.00 0.00 0.00 0.00 0.00 0.00 0.00 0.00 0.00 0.00 0.00 0.00 0.00 0.00 0.00 0.00 0.00 0.00 0.00 0.00 0.00 0.02 0.01 0.00 0.01 0.03 0.04 0.15 0.42 0.71 1.32 1.38 0.83
0.00 0.00 0.00 0.00 0.00 0.00 0.00 0.00 0.00 0.00 0.00 0.00 0.00 0.00 0.00 0.00 0.00 0.00 0.00 0.00 0.00 0.00 0.00 0.00 0.00 0.00 0.00 0.00 0.00 0.00 0.00 0.02 0.02 0.01 0.00 0.01 0.04 0.00 0.01 0.07 0.24 0.57 1.40 1.37
0.00 0.00 0.00 0.00 0.00 0.00 0.00 0.00 0.02 0.01 0.00 0.01 0.00 0.01 0.00 0.00 0.00 0.00 0.00 0.00 0.00 0.00 0.00 0.00 0.00 0.00 0.00 0.00 0.00 0.00 0.01 0.01 0.02 0.02 0.06 0.04 0.01 0.00 0.00 0.02 0.07 0.19 0.43 0.99
0.00 0.00 0.00 0.00 0.00 0.00 0.02 0.00 0.00 0.01 0.01 0.02 0.01 0.00 0.01 0.01 0.00 0.00 0.00 0.00 0.00 0.00 0.00 0.00 0.00 0.00 0.00 0.00 0.00 0.00 0.01 0.01 0.05 0.07 0.04 0.02 0.03 0.00 0.00 0.01 0.03 0.19 0.29 0.60
0.00 0.00 0.00 0.01 0.01 0.01 0.00 0.00 0.00 0.01 0.03 0.01 0.00 0.00 0.02 0.04 0.01 0.02 0.02 0.00 0.00 0.00 0.00 0.00 0.00 0.00 0.00 0.00 0.00 0.00 0.02 0.05 0.07 0.04 0.03 0.03 0.01 0.00 0.00 0.00 0.01 0.06 0.15 0.37
0.00 0.00 0.00 0.01 0.04 0.08 0.05 0.03 0.01 0.01 0.01 0.01 0.01 0.00 0.03 0.05 0.09 0.07 0.07 0.04 0.01 0.00 0.01 0.01 0.00 0.00 0.00 0.01 0.03 0.05 0.07 0.05 0.05 0.04 0.04 0.04 0.06 0.03 0.00 0.00 0.00 0.01 0.03 0.15
0.00 0.01 0.00 0.00 0.01 0.03 0.07 0.10 0.11 0.14 0.06 0.01 0.02 0.01 0.00 0.02 0.06 0.12 0.21 0.23 0.12 0.03 0.02 0.05 0.04 0.02 0.03 0.04 0.07 0.07 0.06 0.05 0.04 0.01 0.05 0.08 0.07 0.02 0.00 0.00 0.00 0.00 0.01 0.04
0.01 0.01 0.01 0.01 0.04 0.03 0.04 0.03 0.09 0.09 0.05 0.04 0.06 0.03 0.00 0.00 0.03 0.07 0.18 0.21 0.18 0.10 0.02 0.02 0.04 0.05 0.11 0.14 0.13 0.07 0.05 0.04 0.04 0.04 0.08 0.07 0.04 0.01 0.01 0.00 0.00 0.00 0.00 0.01
0.02 0.00 0.02 0.03 0.06 0.04 0.03 0.02 0.05 0.15 0.31 0.14 0.02 0.00 0.00 0.00 0.01 0.07 0.11 0.11 0.12 0.14 0.09 0.09 0.12 0.13 0.12 0.15 0.23 0.24 0.21 0.16 0.13 0.11 0.10 0.05 0.03 0.02 0.01 0.00 0.00 0.00 0.00 0.01
0.02 0.01 0.00 0.00 0.00 0.00 0.01 0.00 0.00 0.02 0.07 0.26 0.13 0.01 0.00 0.00 0.01 0.02 0.06 0.07 0.08 0.25 0.30 0.18 0.18 0.22 0.15 0.16 0.22 0.34 0.24 0.20 0.16 0.13 0.08 0.03 0.02 0.02 0.02 0.01 0.00 0.00 0.00 0.00
0.05 0.03 0.01 0.00 0.00 0.00 0.00 0.00 0.00 0.00 0.00 0.00 0.00 0.00 0.00 0.00 0.00 0.00 0.01 0.03 0.15 0.33 0.24 0.22 0.16 0.18 0.16 0.15 0.20 0.32 0.33 0.23 0.17 0.13 0.06 0.02 0.02 0.02 0.02 0.02 0.01 0.01 0.01 0.01
0.12 0.10 0.07 0.03 0.00 0.01 0.00 0.00 0.00 0.00 0.00 0.00 0.00 0.00 0.00 0.00 0.03 0.06 0.08 0.08 0.11 0.11 0.06 0.13 0.19 0.14 0.22 0.19 0.13 0.23 0.35 0.33 0.19 0.13 0.05 0.01 0.01 0.01 0.01 0.02 0.02 0.02 0.03 0.03
0.08 0.15 0.17 0.08 0.07 0.06 0.00 0.00 0.00 0.00 0.01 0.01 0.02 0.01 0.01 0.01 0.11 0.09 0.05 0.04 0.03 0.02 0.03 0.04 0.09 0.05 0.11 0.21 0.37 0.40 0.43 0.45 0.41 0.22 0.07 0.00 0.00 0.01 0.01 0.02 0.02 0.03 0.05 0.05
0.01 0.06 0.19 0.13 0.07 0.02 0.00 0.02 0.07 0.07 0.15 0.11 0.08 0.05 0.02 0.02 0.09 0.10 0.06 0.03 0.02 0.01 0.00 0.01 0.01 0.01 0.02 0.10 0.36 0.70 0.80 0.57 0.52 0.36 0.23 0.06 0.00 0.00 0.01 0.01 0.03 0.06 0.08 0.11
0.06 0.08 0.16 0.13 0.11 0.02 0.02 0.04 0.02 0.07 0.26 0.27 0.22 0.19 0.11 0.06 0.10 0.13 0.05 0.02 0.01 0.00 0.00 0.00 0.00 0.00 0.01 0.07 0.22 0.38 0.74 0.80 0.51 0.38 0.24 0.17 0.06 0.01 0.00 0.02 0.05 0.08 0.10 0.12
0.41 0.51 0.33 0.17 0.33 0.05 0.00 0.03 0.03 0.14 0.42 0.38 0.50 0.61 0.30 0.22 0.34 0.08 0.05 0.02 0.00 0.00 0.00 0.00 0.00 0.00 0.00 0.04 0.17 0.46 0.68 1.03 0.89 0.54 0.36 0.23 0.12 0.07 0.03 0.05 0.08 0.11 0.15 0.14
0.89 0.74 0.42 0.36 0.31 0.08 0.05 0.19 0.27 0.23 0.17 0.29 0.72 0.59 0.23 0.19 0.22 0.17 0.04 0.00 0.00 0.00 0.00 0.00 0.00 0.00 0.00 0.01 0.06 0.20 0.53 1.13 1.49 0.99 0.57 0.37 0.28 0.17 0.08 0.06 0.08 0.10 0.11 0.13
1.13 0.85 0.62 0.16 0.06 0.04 0.08 0.25 0.37 0.25 0.18 0.23 0.07 0.07 0.13 0.09 0.04 0.02 0.01 0.00 0.00 0.00 0.00 0.00 0.00 0.00 0.00 0.01 0.02 0.07 0.15 0.33 1.08 1.55 1.36 0.86 0.43 0.42 0.42 0.32 0.29 0.24 0.18 0.16
0.79 0.77 1.12 0.51 0.24 0.17 0.13 0.11 0.21 0.33 0.26 0.04 0.01 0.08 0.11 0.11 0.08 0.07 0.02 0.01 0.00 0.00 0.01 0.00 0.00 0.00 0.01 0.01 0.02 0.04 0.05 0.12 0.29 0.70 1.05 1.28 1.10 0.55 0.50 0.70 0.68 0.78 0.80 0.60
0.75 0.68 0.81 1.07 1.28 0.74 0.35 0.29 0.15 0.08 0.06 0.11 0.05 0.06 0.18 0.28 0.26 0.22 0.19 0.07 0.01 0.01 0.02 0.02 0.02 0.02 0.03 0.04 0.03 0.05 0.10 0.14 0.19 0.35 0.58 0.69 1.15 0.91 0.42 0.44 0.63 0.65 0.75 0.79
0.20 0.28 0.58 0.97 1.05 1.16 0.78 0.85 0.49 0.26 0.10 0.12 0.05 0.17 0.15 0.05 0.07 0.11 0.17 0.28 0.26 0.16 0.14 0.13 0.10 0.07 0.08 0.09 0.10 0.10 0.12 0.17 0.21 0.25 0.49 0.61 0.70 1.03 0.82 0.54 0.77 0.96 1.19 1.20